EN

Hourly Weather Godziecin

Today, 18 May, Tuesday

Time Temperature Precipitation Wind Pressure Humidity
00:00 +9°C° 0 mm 3 mps 740 mmHg 93%
01:00 +8°C° 0 mm 4 mps 740 mmHg 94%
02:00 +8°C° 0 mm 4 mps 740 mmHg 94%
03:00 +7°C° 0 mm 5 mps 740 mmHg 94%
04:00 +7°C° 0 mm 5 mps 740 mmHg 93%
05:00 +8°C° 0 mm 5 mps 740 mmHg 92%
06:00 +8°C° 0 mm 5 mps 741 mmHg 91%
07:00 +9°C° 0 mm 6 mps 741 mmHg 90%
08:00 +10°C° 0 mm 6 mps 742 mmHg 87%
09:00 +10°C° 0 mm 6 mps 742 mmHg 84%
10:00 +11°C° 0 mm 7 mps 742 mmHg 81%
11:00 +11°C° 0.1 mm 7 mps 742 mmHg 81%
12:00 +11°C° 0.1 mm 7 mps 742 mmHg 80%
13:00 +12°C° 0.1 mm 7 mps 743 mmHg 80%
14:00 +12°C° 0.1 mm 7 mps 743 mmHg 78%
15:00 +13°C° 0.1 mm 6 mps 743 mmHg 75%
16:00 +14°C° 0.1 mm 6 mps 743 mmHg 73%
17:00 +13°C° 0.1 mm 5 mps 743 mmHg 76%
18:00 +12°C° 0.1 mm 4 mps 743 mmHg 79%
19:00 +11°C° 0.1 mm 3 mps 743 mmHg 82%
20:00 +10°C° 0 mm 3 mps 743 mmHg 85%
21:00 +9°C° 0 mm 3 mps 743 mmHg 88%
22:00 +8°C° 0 mm 3 mps 744 mmHg 91%
23:00 +7°C° 0 mm 3 mps 744 mmHg 92%

Tomorrow, 19 May, Wednesday

Time Temperature Precipitation Wind Pressure Humidity
00:00 +7°C° 0 mm 3 mps 744 mmHg 94%
01:00 +7°C° 0 mm 3 mps 744 mmHg 95%
02:00 +5°C° 0 mm 3 mps 744 mmHg 96%
03:00 +5°C° 0 mm 3 mps 744 mmHg 96%
04:00 +5°C° 0 mm 3 mps 744 mmHg 97%
05:00 +7°C° 0 mm 3 mps 745 mmHg 94%
06:00 +7°C° 0 mm 4 mps 745 mmHg 91%
07:00 +8°C° 0 mm 4 mps 745 mmHg 88%
08:00 +10°C° 0.1 mm 4 mps 745 mmHg 84%
09:00 +11°C° 0.1 mm 4 mps 745 mmHg 81%
10:00 +11°C° 0.1 mm 4 mps 745 mmHg 78%
11:00 +12°C° 0.4 mm 4 mps 745 mmHg 75%
12:00 +13°C° 0.4 mm 4 mps 745 mmHg 71%
13:00 +14°C° 0.4 mm 4 mps 745 mmHg 67%
14:00 +14°C° 0.4 mm 4 mps 745 mmHg 70%
15:00 +13°C° 0.4 mm 4 mps 745 mmHg 72%
16:00 +13°C° 0.4 mm 4 mps 745 mmHg 75%
17:00 +12°C° 0.3 mm 4 mps 745 mmHg 79%
18:00 +11°C° 0.3 mm 3 mps 745 mmHg 83%
19:00 +10°C° 0.3 mm 3 mps 745 mmHg 87%
20:00 +9°C° 0.1 mm 3 mps 745 mmHg 89%
21:00 +9°C° 0.1 mm 3 mps 746 mmHg 90%
22:00 +8°C° 0.1 mm 3 mps 746 mmHg 92%
23:00 +7°C° 0 mm 2 mps 746 mmHg 92%

Day after tomorrow, 20 May, Thursday

Time Temperature Precipitation Wind Pressure Humidity
00:00 +7°C° 0 mm 2 mps 746 mmHg 93%
01:00 +6°C° 0 mm 2 mps 746 mmHg 93%
02:00 +6°C° 0 mm 2 mps 746 mmHg 93%
03:00 +6°C° 0 mm 2 mps 747 mmHg 94%
04:00 +6°C° 0 mm 2 mps 747 mmHg 94%
05:00 +7°C° 0 mm 2 mps 747 mmHg 91%
06:00 +8°C° 0 mm 3 mps 748 mmHg 89%
07:00 +9°C° 0 mm 3 mps 748 mmHg 86%
08:00 +11°C° 0.1 mm 3 mps 748 mmHg 81%
09:00 +12°C° 0.1 mm 3 mps 748 mmHg 75%
10:00 +14°C° 0.1 mm 3 mps 748 mmHg 70%
11:00 +14°C° 0.5 mm 4 mps 748 mmHg 71%
12:00 +14°C° 0.5 mm 4 mps 748 mmHg 73%
13:00 +14°C° 0.5 mm 5 mps 748 mmHg 74%
14:00 +14°C° 0.4 mm 5 mps 748 mmHg 75%
15:00 +14°C° 0.4 mm 5 mps 748 mmHg 75%
16:00 +14°C° 0.4 mm 5 mps 749 mmHg 75%
17:00 +13°C° 0.3 mm 4 mps 749 mmHg 79%
18:00 +12°C° 0.3 mm 4 mps 749 mmHg 83%
19:00 +11°C° 0.3 mm 3 mps 749 mmHg 86%
20:00 +10°C° 0 mm 3 mps 749 mmHg 87%
21:00 +8°C° 0 mm 2 mps 749 mmHg 88%
22:00 +7°C° 0 mm 2 mps 750 mmHg 89%
23:00 +7°C° 0 mm 2 mps 750 mmHg 90%

21 May, Friday

Time Temperature Precipitation Wind Pressure Humidity
00:00 +6°C° 0 mm 2 mps 750 mmHg 90%
01:00 +6°C° 0 mm 2 mps 750 mmHg 91%
02:00 +6°C° 0 mm 2 mps 749 mmHg 90%
03:00 +6°C° 0 mm 2 mps 749 mmHg 89%
04:00 +5°C° 0 mm 2 mps 749 mmHg 89%
05:00 +7°C° 0 mm 2 mps 749 mmHg 85%
06:00 +9°C° 0 mm 2 mps 749 mmHg 81%
07:00 +10°C° 0 mm 3 mps 749 mmHg 76%
08:00 +12°C° 0 mm 3 mps 748 mmHg 70%
09:00 +14°C° 0 mm 4 mps 748 mmHg 64%
10:00 +15°C° 0 mm 5 mps 747 mmHg 58%
11:00 +16°C° 0 mm 5 mps 747 mmHg 55%
12:00 +17°C° 0 mm 5 mps 746 mmHg 52%
13:00 +19°C° 0 mm 5 mps 746 mmHg 50%
14:00 +19°C° 0 mm 5 mps 745 mmHg 53%
15:00 +19°C° 0 mm 5 mps 745 mmHg 56%
16:00 +19°C° 0 mm 5 mps 744 mmHg 59%
17:00 +17°C° 0 mm 4 mps 744 mmHg 63%
18:00 +15°C° 0 mm 4 mps 743 mmHg 66%
19:00 +14°C° 0 mm 4 mps 743 mmHg 70%
20:00 +13°C° 0 mm 3 mps 743 mmHg 72%
21:00 +13°C° 0 mm 3 mps 742 mmHg 73%
22:00 +13°C° 0 mm 2 mps 742 mmHg 74%
23:00 +12°C° 0 mm 3 mps 742 mmHg 73%

22 May, Saturday

Time Temperature Precipitation Wind Pressure Humidity
00:00 +12°C° 0 mm 3 mps 741 mmHg 71%
01:00 +12°C° 0 mm 3 mps 741 mmHg 70%
02:00 +12°C° 0 mm 3 mps 740 mmHg 73%
03:00 +11°C° 0 mm 3 mps 740 mmHg 75%
04:00 +11°C° 0 mm 3 mps 739 mmHg 78%
05:00 +11°C° 0 mm 3 mps 739 mmHg 77%
06:00 +12°C° 0 mm 3 mps 740 mmHg 76%
07:00 +13°C° 0 mm 3 mps 740 mmHg 75%
08:00 +14°C° 0 mm 3 mps 740 mmHg 73%
09:00 +14°C° 0 mm 4 mps 740 mmHg 71%
10:00 +15°C° 0 mm 5 mps 740 mmHg 70%
11:00 +14°C° 0.2 mm 4 mps 740 mmHg 74%
12:00 +14°C° 0.2 mm 4 mps 740 mmHg 79%
13:00 +13°C° 0.2 mm 3 mps 739 mmHg 83%
14:00 +13°C° 0.5 mm 3 mps 740 mmHg 85%
15:00 +12°C° 0.5 mm 3 mps 740 mmHg 87%
16:00 +11°C° 0.5 mm 3 mps 740 mmHg 89%
17:00 +11°C° 0.1 mm 3 mps 740 mmHg 87%
18:00 +11°C° 0.1 mm 3 mps 740 mmHg 85%
19:00 +11°C° 0.1 mm 4 mps 741 mmHg 83%
20:00 +10°C° 0 mm 4 mps 741 mmHg 84%
21:00 +8°C° 0 mm 4 mps 741 mmHg 84%
22:00 +8°C° 0 mm 4 mps 742 mmHg 85%
23:00 +7°C° 0 mm 4 mps 742 mmHg 85%

23 May, Sunday

Time Temperature Precipitation Wind Pressure Humidity
00:00 +7°C° 0 mm 4 mps 742 mmHg 85%
01:00 +7°C° 0 mm 4 mps 742 mmHg 85%
02:00 +7°C° 0 mm 4 mps 742 mmHg 86%
03:00 +6°C° 0 mm 4 mps 742 mmHg 87%
04:00 +7°C° 0 mm 3 mps 743 mmHg 88%
05:00 +7°C° 0 mm 4 mps 743 mmHg 83%
06:00 +10°C° 0 mm 4 mps 743 mmHg 78%
07:00 +12°C° 0 mm 5 mps 743 mmHg 73%
08:00 +12°C° 0.1 mm 5 mps 744 mmHg 68%
09:00 +13°C° 0.1 mm 6 mps 744 mmHg 63%
10:00 +14°C° 0.1 mm 7 mps 744 mmHg 59%
11:00 +15°C° 0.1 mm 7 mps 744 mmHg 57%
12:00 +15°C° 0.1 mm 7 mps 744 mmHg 56%
13:00 +16°C° 0.1 mm 7 mps 745 mmHg 55%
14:00 +15°C° 0.2 mm 7 mps 745 mmHg 57%
15:00 +15°C° 0.2 mm 6 mps 745 mmHg 59%
16:00 +15°C° 0.2 mm 6 mps 745 mmHg 62%
17:00 +13°C° 0.1 mm 5 mps 745 mmHg 66%
18:00 +12°C° 0.1 mm 4 mps 746 mmHg 69%
19:00 +11°C° 0.1 mm 3 mps 746 mmHg 73%
20:00 +10°C° 0 mm 3 mps 746 mmHg 74%
21:00 +9°C° 0 mm 3 mps 747 mmHg 75%
22:00 +8°C° 0 mm 3 mps 747 mmHg 76%
23:00 +8°C° 0 mm 3 mps 747 mmHg 77%
Show more